| time (UTC) | temp F | wind direction | speed MPH | gust MPH | rain 1hr in | rain 24hr in | rain mn in | humidity % | barometer mb |
| 20260902232726 | 75 | 357 | 5.0 | 22.0 | 0.00 | 0.00 | 0.03 | 75 | 1012.6 |
| 20260902232046 | 75 | 355 | 12.0 | 34.0 | 0.00 | 0.00 | 0.03 | 69 | 1012.6 |
| 20260902231406 | 75 | 355 | 9.0 | 34.0 | 0.00 | 0.00 | 0.03 | 95 | 1013.3 |
| 20260902230725 | 78 | 356 | 7.0 | 10.0 | 0.00 | 0.00 | 0.01 | 78 | 1013.0 |
| 20260902225649 | 0 | 354 | 9.0 | 7.0 | 0.00 | 0.00 | 0.01 | ||
| 20260902224828 | 78 | 357 | 5.0 | 8.0 | 0.00 | 0.00 | 0.01 | 78 | 1011.7 |
| 20260902224149 | 0 | 356 | 0.0 | 6.0 | 0.00 | 0.00 | 0.01 | ||
| 20260902223403 | 79 | 357 | 1.0 | 9.0 | 0.00 | 0.00 | 0.01 | 79 | 1012.4 |
| 20260902222718 | 78 | 359 | 2.0 | 9.0 | 0.00 | 0.00 | 0.01 | 79 | 1012.1 |
| 20260902222039 | 79 | 357 | 4.0 | 9.0 | 0.00 | 0.00 | 0.01 | 78 | 1012.0 |
| 20260902221409 | 78 | 358 | 1.0 | 8.0 | 0.00 | 0.00 | 0.01 | 78 | 1011.8 |
| 20260902220719 | 79 | 355 | 2.0 | 8.0 | 0.00 | 0.00 | 0.01 | 77 | 1011.9 |
| 20260902220038 | 79 | 356 | 0.0 | 0.0 | 0.00 | 0.00 | 0.01 | 76 | 1011.8 |
| 20260902215400 | 79 | 354 | 0.0 | 7.0 | 0.00 | 0.00 | 0.01 | 78 | 1011.6 |
| 20260902214719 | 80 | 356 | 0.0 | 6.0 | 0.00 | 0.00 | 0.01 | 76 | 1011.4 |
| 20260902214039 | 80 | 359 | 0.0 | 0.0 | 0.00 | 0.00 | 0.01 | 76 | 1011.2 |
| 20260902213400 | 0 | 356 | 0.0 | 0.0 | 0.00 | 0.00 | 0.01 | ||
| 20260902212606 | 80 | 356 | 0.0 | 5.0 | 0.00 | 0.00 | 0.01 | 75 | 1011.2 |
| 20260902211927 | 81 | 357 | 0.0 | 6.0 | 0.00 | 0.00 | 0.01 | 73 | 1011.5 |
| 20260902211247 | 0 | 357 | 0.0 | 6.0 | 0.00 | 0.00 | 0.01 | ||
| 20260902210458 | 80 | 356 | 5.0 | 7.0 | 0.00 | 0.00 | 0.01 | 74 | 1012.1 |
| 20260902205820 | 80 | 356 | 1.0 | 7.0 | 0.00 | 0.00 | 0.01 | 74 | 1012.3 |
| 20260902205139 | 80 | 358 | 1.0 | 7.0 | 0.00 | 0.00 | 0.01 | 74 | 1012.3 |
| 20260902204500 | 0 | 359 | 0.0 | 7.0 | 0.00 | 0.00 | 0.01 | ||
| 20260902203707 | 0 | 357 | 3.0 | 3.0 | 0.00 | 0.00 | 0.01 | ||
| 20260902202757 | 0 | 356 | 0.0 | 7.0 | 0.00 | 0.00 | 0.01 | ||
| 20260902201955 | 80 | 356 | 0.0 | 6.0 | 0.00 | 0.00 | 0.01 | 71 | 1013.4 |
| 20260902201301 | 0 | 356 | 2.0 | 8.0 | 0.00 | 0.00 | 0.01 | ||
| 20260902200351 | 0 | 357 | 2.0 | 2.0 | 0.00 | 0.00 | 0.01 | ||
| 20260902195555 | 81 | 352 | 2.0 | 3.0 | 0.00 | 0.00 | 0.01 | 67 | 1013.9 |
| 20260902194737 | 0 | 357 | 1.0 | 6.0 | 0.00 | 0.00 | 0.01 | ||
| 20260902193949 | 0 | 352 | 0.0 | 2.0 | 0.00 | 0.00 | 0.01 | ||
| 20260902193202 | 0 | 352 | 0.0 | 0.0 | 0.00 | 0.00 | 0.01 | ||
| 20260902192404 | 82 | 357 | 0.0 | 0.0 | 0.00 | 0.00 | 0.01 | 65 | 1014.0 |
| 20260902191725 | 0 | 357 | 0.0 | 0.0 | 0.00 | 0.00 | 0.01 | ||
| 20260902190829 | 83 | 356 | 0.0 | 0.0 | 0.00 | 0.00 | 0.01 | 64 | 1014.2 |
| 20260902190139 | 82 | 356 | 0.0 | 5.0 | 0.00 | 0.00 | 0.01 | 66 | 1014.1 |
| 20260902185505 | 0 | 357 | 0.0 | 8.0 | 0.00 | 0.00 | 0.01 | ||
| 20260902184707 | 0 | 355 | 5.0 | 5.0 | 0.00 | 0.00 | 0.01 | ||
| 20260902184003 | 82 | 355 | 6.0 | 10.0 | 0.00 | 0.00 | 0.01 | 64 | 1014.1 |
| 20260902183338 | 83 | 356 | 5.0 | 11.0 | 0.00 | 0.00 | 0.01 | 63 | 1014.0 |
| 20260902182645 | 0 | 355 | 7.0 | 9.0 | 0.00 | 0.00 | 0.01 | ||
| 20260902181903 | 83 | 354 | 6.0 | 10.0 | 0.00 | 0.00 | 0.01 | 62 | 1013.9 |
| 20260902181213 | 0 | 360 | 2.0 | 2.0 | 0.00 | 0.00 | 0.01 | ||
| 20260902180311 | 0 | 355 | 6.0 | 5.0 | 0.00 | 0.00 | 0.01 | ||
| 20260902175513 | 83 | 354 | 3.0 | 10.0 | 0.00 | 0.00 | 0.01 | 63 | 1014.1 |
| 20260902174833 | 0 | 355 | 7.0 | 5.0 | 0.00 | 0.00 | 0.01 | ||
| 20260902174043 | 82 | 354 | 5.0 | 10.0 | 0.00 | 0.00 | 0.01 | 64 | 1014.4 |
| 20260902173403 | 80 | 355 | 7.0 | 10.0 | 0.00 | 0.00 | 0.01 | 66 | 1014.5 |
| 20260902172724 | 0 | 359 | 4.0 | 9.0 | 0.00 | 0.00 | 0.01 | ||
| 20260902171710 | 80 | 357 | 6.0 | 9.0 | 0.00 | 0.00 | 0.01 | 70 | 1014.9 |
| 20260902171030 | 78 | 358 | 4.0 | 6.0 | 0.00 | 0.00 | 0.01 | 74 | 1015.1 |
| 20260902170355 | 78 | 359 | 0.0 | 8.0 | 0.00 | 0.00 | 0.01 | 76 | 1015.3 |
| 20260902165711 | 77 | 358 | 3.0 | 8.0 | 0.00 | 0.00 | 0.01 | 80 | 1015.3 |
| 20260902165031 | 0 | 357 | 3.0 | 8.0 | 0.00 | 0.00 | 0.00 | ||
| 20260902164247 | 76 | 356 | 6.0 | 10.0 | 0.00 | 0.00 | 0.00 | 82 | 1015.0 |
| 20260902163557 | 76 | 356 | 6.0 | 10.0 | 0.00 | 0.00 | 0.00 | 82 | 1014.5 |
| 20260902162933 | 76 | 356 | 6.0 | 11.0 | 0.00 | 0.00 | 0.00 | 80 | 1014.6 |
| 20260902162248 | 0 | 357 | 5.0 | 5.0 | 0.00 | 0.00 | 0.00 | ||
| 20260902161459 | 0 | 358 | 3.0 | 7.0 | 0.00 | 0.00 | 0.00 | ||
| 20260902160655 | 77 | 355 | 0.0 | 0.0 | 0.00 | 0.00 | 0.00 | 76 | 1014.9 |
| 20260902155446 | 78 | 356 | 0.0 | 7.0 | 0.00 | 0.00 | 0.00 | 73 | 1015.0 |
| 20260902154805 | 79 | 359 | 3.0 | 5.0 | 0.00 | 0.00 | 0.00 | 72 | 1014.9 |
| 20260902154125 | 78 | 356 | 1.0 | 5.0 | 0.00 | 0.00 | 0.00 | 70 | 1015.1 |
| 20260902153446 | 79 | 356 | 0.0 | 0.0 | 0.00 | 0.00 | 0.00 | 69 | 1015.1 |
| 20260902152545 | 79 | 356 | 0.0 | 4.0 | 0.00 | 0.00 | 0.00 | 67 | 1014.9 |
| 20260902151905 | 78 | 355 | 0.0 | 0.0 | 0.00 | 0.00 | 0.00 | 69 | 1015.0 |
| 20260902151225 | 79 | 355 | 0.0 | 0.0 | 0.00 | 0.00 | 0.00 | 67 | 1015.3 |
| 20260902150545 | 77 | 355 | 0.0 | 0.0 | 0.00 | 0.00 | 0.00 | 70 | 1015.4 |
| 20260902145601 | 0 | 358 | 0.0 | 7.0 | 0.00 | 0.00 | 0.00 | ||
| 20260902144810 | 77 | 355 | 2.0 | 10.0 | 0.00 | 0.00 | 0.00 | 72 | 1015.7 |
| 20260902144130 | 77 | 359 | 4.0 | 10.0 | 0.00 | 0.00 | 0.00 | 71 | 1015.6 |
| 20260902143450 | 77 | 358 | 0.0 | 8.0 | 0.00 | 0.00 | 0.00 | 72 | 1015.7 |
| 20260902142810 | 0 | 356 | 5.0 | 7.0 | 0.00 | 0.00 | 0.00 | ||
| 20260902142103 | 77 | 356 | 6.0 | 8.0 | 0.00 | 0.00 | 0.00 | 75 | 1015.6 |
| 20260902141425 | 76 | 356 | 4.0 | 8.0 | 0.00 | 0.00 | 0.00 | 77 | 1015.6 |
| 20260902140746 | 76 | 355 | 3.0 | 9.0 | 0.00 | 0.00 | 0.00 | 76 | 1015.5 |
| 20260902140105 | 77 | 356 | 0.0 | 0.0 | 0.00 | 0.00 | 0.00 | 77 | 1015.8 |
| 20260902134724 | 77 | 358 | 0.0 | 0.0 | 0.00 | 0.00 | 0.00 | 75 | 1015.7 |
| 20260902134038 | 76 | 358 | 0.0 | 0.0 | 0.00 | 0.00 | 0.00 | 78 | 1015.7 |
| 20260902133359 | 0 | 355 | 0.0 | 3.0 | 0.00 | 0.00 | 0.00 | ||
| 20260902132619 | 0 | 354 | 0.0 | 0.0 | 0.00 | 0.00 | 0.00 | ||
| 20260902131551 | 0 | 357 | 0.0 | 0.0 | 0.00 | 0.00 | 0.00 | ||
| 20260902130758 | 74 | 355 | 0.0 | 0.0 | 0.00 | 0.00 | 0.00 | 83 | 1016.0 |
| 20260902130119 | 74 | 357 | 0.0 | 3.0 | 0.00 | 0.00 | 0.00 | 82 | 1016.0 |
| 20260902125444 | 74 | 358 | 0.0 | 0.0 | 0.00 | 0.00 | 0.00 | 80 | 1016.1 |
| 20260902124759 | 74 | 355 | 0.0 | 0.0 | 0.00 | 0.00 | 0.00 | 81 | 1015.7 |
| 20260902124119 | 0 | 358 | 0.0 | 0.0 | 0.00 | 0.00 | 0.00 | ||
| 20260902123331 | 74 | 356 | 0.0 | 0.0 | 0.00 | 0.00 | 0.00 | 81 | 1015.6 |
| 20260902122650 | 74 | 355 | 0.0 | 5.0 | 0.00 | 0.00 | 0.00 | 80 | 1015.4 |
| 20260902122011 | 0 | 356 | 0.0 | 11.0 | 0.00 | 0.00 | 0.00 | ||
| 20260902121221 | 74 | 355 | 8.0 | 16.0 | 0.00 | 0.00 | 0.00 | 78 | 1014.3 |
| 20260902120543 | 0 | 358 | 9.0 | 8.0 | 0.00 | 0.00 | 0.00 | ||
| 20260902115750 | 75 | 355 | 10.0 | 19.0 | 0.00 | 0.00 | 0.00 | 80 | 1014.0 |
| 20260902115109 | 75 | 355 | 10.0 | 21.0 | 0.00 | 0.00 | 0.00 | 80 | 1014.5 |
| 20260902114430 | 75 | 355 | 10.0 | 17.0 | 0.00 | 0.00 | 0.00 | 80 | 1014.7 |
| 20260902113750 | 0 | 355 | 7.0 | 7.0 | 0.00 | 0.00 | 0.00 | ||
| 20260902112947 | 74 | 356 | 2.0 | 6.0 | 0.00 | 0.00 | 0.00 | 82 | 1014.1 |
| 20260902112317 | 74 | 355 | 0.0 | 9.0 | 0.00 | 0.00 | 0.00 | 81 | 1013.8 |
| 20260902111627 | 74 | 355 | 5.0 | 9.0 | 0.00 | 0.00 | 0.00 | 81 | 1014.0 |
| 20260902110947 | 0 | 356 | 8.0 | 6.0 | 0.00 | 0.00 | 0.00 | ||
| 20260902110153 | 0 | 355 | 6.0 | 8.0 | 0.00 | 0.00 | 0.00 | ||
| 20260902105403 | 73 | 356 | 3.0 | 8.0 | 0.00 | 0.00 | 0.00 | 82 | 1013.5 |
| 20260902104723 | 73 | 355 | 2.0 | 9.0 | 0.00 | 0.00 | 0.00 | 82 | 1013.5 |
| 20260902104043 | 73 | 355 | 6.0 | 11.0 | 0.00 | 0.00 | 0.00 | 82 | 1013.4 |
| 20260902103403 | 73 | 355 | 0.0 | 0.0 | 0.00 | 0.00 | 0.00 | 83 | 1013.4 |
| 20260902102723 | 73 | 356 | 0.0 | 0.0 | 0.00 | 0.00 | 0.00 | 83 | 1013.4 |
| 20260902102043 | 73 | 356 | 0.0 | 0.0 | 0.00 | 0.00 | 0.00 | 82 | 1013.6 |
| 20260902101408 | 73 | 356 | 0.0 | 0.0 | 0.00 | 0.00 | 0.00 | 83 | 1013.7 |
| 20260902100723 | 73 | 355 | 0.0 | 0.0 | 0.00 | 0.00 | 0.00 | 83 | 1013.4 |
| 20260902100042 | 73 | 357 | 0.0 | 0.0 | 0.00 | 0.00 | 0.00 | 83 | 1013.4 |
| 20260902095403 | 0 | 358 | 0.0 | 6.0 | 0.00 | 0.00 | 0.00 | ||
| 20260902094610 | 73 | 353 | 2.0 | 7.0 | 0.00 | 0.00 | 0.00 | 85 | 1013.4 |
| 20260902093930 | 73 | 356 | 2.0 | 6.0 | 0.00 | 0.00 | 0.00 | 85 | 1013.6 |
| 20260902093251 | 73 | 356 | 0.0 | 0.0 | 0.00 | 0.00 | 0.00 | 86 | 1013.6 |
| 20260902092611 | 73 | 354 | 0.0 | 3.0 | 0.00 | 0.00 | 0.00 | 86 | 1013.6 |
| 20260902091932 | 73 | 359 | 0.0 | 2.0 | 0.00 | 0.00 | 0.00 | 86 | 1013.7 |
| 20260902091252 | 73 | 356 | 0.0 | 0.0 | 0.00 | 0.00 | 0.00 | 86 | 1014.0 |
| 20260902090611 | 73 | 357 | 0.0 | 5.0 | 0.00 | 0.00 | 0.00 | 86 | 1014.0 |
| 20260902085932 | 0 | 355 | 2.0 | 6.0 | 0.00 | 0.00 | 0.00 | ||
| 20260902085223 | 73 | 357 | 0.0 | 0.0 | 0.00 | 0.00 | 0.00 | 86 | 1014.1 |
| 20260902084542 | 73 | 356 | 0.0 | 0.0 | 0.00 | 0.00 | 0.00 | 86 | 1014.3 |
| 20260902083902 | 73 | 357 | 0.0 | 0.0 | 0.00 | 0.00 | 0.00 | 86 | 1014.4 |
| 20260902083222 | 73 | 355 | 0.0 | 0.0 | 0.00 | 0.00 | 0.00 | 87 | 1014.4 |
| 20260902082542 | 73 | 357 | 0.0 | 0.0 | 0.00 | 0.00 | 0.00 | 87 | 1014.4 |
| 20260902081904 | 0 | 355 | 0.0 | 0.0 | 0.00 | 0.00 | 0.00 | ||
| 20260902081109 | 0 | 358 | 0.0 | 0.0 | 0.00 | 0.00 | 0.00 | ||
| 20260902080321 | 73 | 357 | 0.0 | 0.0 | 0.00 | 0.00 | 0.00 | 86 | 1014.7 |
| 20260902075641 | 73 | 358 | 0.0 | 0.0 | 0.00 | 0.00 | 0.00 | 87 | 1014.7 |
| 20260902075001 | 73 | 357 | 0.0 | 0.0 | 0.00 | 0.00 | 0.00 | 87 | 1014.7 |
| 20260902074322 | 0 | 356 | 0.0 | 0.0 | 0.00 | 0.00 | 0.00 | ||
| 20260902073421 | 0 | 354 | 0.0 | 0.0 | 0.00 | 0.00 | 0.00 | ||
| 20260902072520 | 73 | 356 | 0.0 | 0.0 | 0.00 | 0.00 | 0.00 | 88 | 1014.6 |
| 20260902071842 | 73 | 355 | 0.0 | 0.0 | 0.00 | 0.00 | 0.00 | 88 | 1014.7 |
| 20260902071210 | 73 | 357 | 0.0 | 0.0 | 0.00 | 0.00 | 0.00 | 87 | 1014.8 |
| 20260902070520 | 73 | 353 | 0.0 | 0.0 | 0.00 | 0.00 | 0.00 | 87 | 1014.7 |
| 20260902065841 | 0 | 357 | 0.0 | 0.0 | 0.00 | 0.00 | 0.00 | ||
| 20260902064941 | 0 | 358 | 0.0 | 0.0 | 0.00 | 0.00 | 0.00 | ||
| 20260902064153 | 73 | 358 | 0.0 | 0.0 | 0.00 | 0.00 | 0.00 | 88 | 1014.9 |
| 20260902063513 | 0 | 357 | 0.0 | 0.0 | 0.00 | 0.00 | 0.00 | ||
| 20260902062501 | 73 | 356 | 0.0 | 0.0 | 0.00 | 0.00 | 0.00 | 88 | 1014.8 |
| 20260902061821 | 0 | 359 | 0.0 | 0.0 | 0.00 | 0.00 | 0.00 | ||
| 20260902060926 | 73 | 353 | 0.0 | 0.0 | 0.00 | 0.00 | 0.00 | 88 | 1014.9 |
| 20260902060246 | 73 | 357 | 0.0 | 0.0 | 0.00 | 0.00 | 0.00 | 88 | 1014.9 |
| 20260902055606 | 72 | 357 | 0.0 | 0.0 | 0.00 | 0.00 | 0.00 | 88 | 1014.9 |
| 20260902054925 | 73 | 356 | 0.0 | 0.0 | 0.00 | 0.00 | 0.00 | 88 | 1014.9 |
| 20260902054246 | 0 | 360 | 0.0 | 0.0 | 0.00 | 0.00 | 0.00 | ||
| 20260902053339 | 0 | 352 | 0.0 | 0.0 | 0.00 | 0.00 | 0.00 | ||
| 20260902052331 | 73 | 357 | 0.0 | 0.0 | 0.00 | 0.00 | 0.00 | 88 | 1014.9 |
| 20260902051650 | 72 | 357 | 0.0 | 0.0 | 0.00 | 0.00 | 0.00 | 87 | 1014.8 |
| 20260902051010 | 73 | 357 | 0.0 | 0.0 | 0.00 | 0.00 | 0.00 | 87 | 1014.8 |
| 20260902050340 | 0 | 357 | 0.0 | 0.0 | 0.00 | 0.00 | 0.00 | ||
| 20260902045541 | 73 | 356 | 0.0 | 0.0 | 0.00 | 0.00 | 0.00 | 86 | 1014.8 |
| 20260902044911 | 0 | 356 | 0.0 | 0.0 | 0.00 | 0.00 | 0.00 | ||
| 20260902044112 | 73 | 358 | 0.0 | 0.0 | 0.00 | 0.00 | 0.00 | 86 | 1014.8 |
| 20260902043432 | 73 | 359 | 0.0 | 0.0 | 0.00 | 0.00 | 0.00 | 86 | 1014.7 |
| 20260902042753 | 73 | 357 | 0.0 | 0.0 | 0.00 | 0.00 | 0.00 | 86 | 1014.8 |
| 20260902042123 | 0 | 360 | 0.0 | 0.0 | 0.00 | 0.00 | 0.00 | ||
| 20260902041319 | 0 | 357 | 0.0 | 0.0 | 0.00 | 0.00 | 0.00 | ||
| 20260902040530 | 73 | 358 | 0.0 | 0.0 | 0.00 | 0.00 | 0.00 | 86 | 1014.8 |
| 20260902035850 | 0 | 353 | 0.0 | 0.0 | 0.00 | 0.00 | 0.00 | ||
| 20260902034947 | 73 | 357 | 0.0 | 0.0 | 0.00 | 0.00 | 0.00 | 84 | 1014.6 |
| 20260902034306 | 73 | 357 | 0.0 | 0.0 | 0.00 | 0.00 | 0.00 | 83 | 1014.5 |
| 20260902033626 | 74 | 356 | 0.0 | 0.0 | 0.00 | 0.00 | 0.00 | 83 | 1014.5 |
| 20260902032947 | 74 | 357 | 0.0 | 0.0 | 0.00 | 0.00 | 0.00 | 83 | 1014.5 |
| 20260902032307 | 74 | 355 | 0.0 | 0.0 | 0.00 | 0.00 | 0.00 | 82 | 1014.5 |
| 20260902031626 | 74 | 357 | 0.0 | 0.0 | 0.00 | 0.00 | 0.00 | 81 | 1014.4 |
| 20260902030947 | 0 | 355 | 0.0 | 0.0 | 0.00 | 0.00 | 0.00 | ||
| 20260902030041 | 74 | 356 | 0.0 | 0.0 | 0.00 | 0.00 | 0.01 | 80 | 1014.5 |
| 20260902025402 | 0 | 356 | 0.0 | 0.0 | 0.00 | 0.00 | 0.01 | ||
| 20260902024605 | 75 | 358 | 0.0 | 0.0 | 0.00 | 0.00 | 0.01 | 78 | 1014.5 |
| 20260902023552 | 75 | 357 | 0.0 | 0.0 | 0.00 | 0.00 | 0.01 | 77 | 1014.5 |
| 20260902022912 | 0 | 352 | 0.0 | 0.0 | 0.00 | 0.00 | 0.01 | ||
| 20260902022114 | 76 | 357 | 0.0 | 0.0 | 0.00 | 0.00 | 0.01 | 76 | 1014.5 |
| 20260902021434 | 75 | 355 | 0.0 | 0.0 | 0.00 | 0.00 | 0.01 | 76 | 1014.6 |
| 20260902020753 | 75 | 358 | 0.0 | 0.0 | 0.00 | 0.00 | 0.01 | 77 | 1014.5 |
| 20260902020114 | 0 | 356 | 0.0 | 0.0 | 0.00 | 0.00 | 0.01 | ||
| 20260902015408 | 0 | 356 | 0.0 | 0.0 | 0.00 | 0.00 | 0.01 | ||
| 20260902014350 | 75 | 357 | 0.0 | 0.0 | 0.00 | 0.00 | 0.01 | 77 | 1014.6 |
| 20260902013709 | 0 | 357 | 0.0 | 0.0 | 0.00 | 0.00 | 0.01 | ||
| 20260902013002 | 76 | 357 | 0.0 | 0.0 | 0.00 | 0.00 | 0.01 | 77 | 1014.6 |
| 20260902011641 | 75 | 356 | 0.0 | 0.0 | 0.00 | 0.00 | 0.01 | 79 | 1014.6 |
| 20260902011011 | 75 | 356 | 0.0 | 0.0 | 0.00 | 0.00 | 0.01 | 81 | 1014.5 |
| 20260902010322 | 75 | 357 | 0.0 | 0.0 | 0.00 | 0.00 | 0.01 | 86 | 1014.5 |
| 20260902005641 | 0 | 357 | 0.0 | 0.0 | 0.00 | 0.00 | 0.01 | ||
| 20260902004901 | 0 | 358 | 0.0 | 0.0 | 0.00 | 0.00 | 0.01 | ||
| 20260902003846 | 76 | 355 | 0.0 | 0.0 | 0.00 | 0.00 | 0.01 | 86 | 1014.2 |
| 20260902003208 | 0 | 355 | 0.0 | 0.0 | 0.00 | 0.00 | 0.01 | ||
| 20260902002418 | 0 | 358 | 0.0 | 0.0 | 0.00 | 0.00 | 0.01 | ||
| 20260902001518 | 75 | 356 | 0.0 | 0.0 | 0.00 | 0.00 | 0.01 | 85 | 1014.0 |
| 20260902000838 | 0 | 357 | 0.0 | 0.0 | 0.00 | 0.00 | 0.01 | ||
| 20260902000050 | 0 | 358 | 0.0 | 0.0 | 0.00 | 0.00 | 0.01 | ||
| 20260901235301 | 75 | 357 | 0.0 | 0.0 | 0.00 | 0.00 | 0.01 | 86 | 1014.0 |
| 20260901234620 | 75 | 357 | 0.0 | 0.0 | 0.00 | 0.00 | 0.01 | 86 | 1014.0 |
| 20260901233940 | 75 | 355 | 0.0 | 0.0 | 0.00 | 0.00 | 0.01 | 86 | 1014.0 |
| 20260901233301 | 0 | 356 | 0.0 | 0.0 | 0.00 | 0.00 | 0.01 |